Location: Asis
(14.1331°N, 120.9056°E)
Time: 14:26:26
(UTC+00:00)

Resurs 01 Rocket - Visible Passes

Search period start: 19 April 2026 00:00
Search period end: 29 April 2026 00:00
Orbit: 625 x 637 km, 97.7° (Epoch: 19 April)

Date Brightness Start Highest point End Pass type
(mag) Time Alt. Az. Time Alt. Az. Time Alt. Az.
19 Apr 4.1 11:57:30 10° SW 12:00:38 19° W 12:03:46 10° NW visible
20 Apr 2.2 10:41:05 10° SE 10:45:06 36° ENE 10:49:05 10° N visible
21 Apr 1.5 11:01:20 10° SSE 11:05:41 72° ENE 11:10:01 10° N visible
22 Apr 2.2 11:22:01 10° S 11:26:18 57° W 11:30:36 10° NNW visible
23 Apr 3.5 11:43:10 10° SSW 11:46:57 29° W 11:50:43 10° NW visible
24 Apr 2.7 10:27:58 10° SE 10:31:28 24° ENE 10:34:58 10° NNE visible
24 Apr 4.4 12:05:05 10° SW 12:07:37 15° W 12:10:10 10° WNW visible
25 Apr 1.9 10:47:52 10° SSE 10:52:03 46° ENE 10:56:12 10° N visible
26 Apr 1.5 11:08:17 10° SSE 11:12:39 88° WSW 11:17:00 10° NNW visible
27 Apr 2.7 11:29:07 10° S 11:33:16 44° W 11:37:25 10° NNW visible
28 Apr 3.8 11:50:29 10° SSW 11:53:55 23° W 11:57:22 10° NW visible
